IRIDIUM 33 DEB, 46971

Orbit data source: Space-Track

IRIDIUM 33 DEB, 46971 is space debris in LEO originally from a launch on Sun, 14 Sep 1997 UTC launched from the Tyuratam Missile And Space Complex (TTMTR). The debris from Iridium 33, an American commercial communications satellite, has been tracked extensively since its accidental collision with the defunct Russian satellite Cosmos 2251 in 2009. This event, occurring at high speed in low Earth orbit (LEO), generated thousands of pieces of space debris, significantly increasing the risk of further collisions. The Iridium 33 debris cloud has impacted space traffic management and orbital debris mitigation strategies, making it a subject of ongoing study in space situational awareness.

Loading next visibility...
Identifier
46971, 1997-051ACD
Orbit
LEO
Country
Flag of USUS
Related business
Manufacturer
Unknown
Mission
Spacecraft
Bus & Motor
Unknown
Mass
Unknown
Launch date (UTC)
1997-09-14 (28 years ago)
Launch vehicle
Unknown
Launch site
Tyuratam Missile And Space Complex (TTMTR)
Object type
Payload
Rocket body
Debris
Shape & HBR
Unknown shape, 0.1 m
Radar Cross Section
Small (<0.1 m²)

Expand to show TLE details & history
Last TLE update: 1 day ago

TLE from 1 day ago
0 IRIDIUM 33 DEB
1 46971U 97051ACD 25350.27134353  .00023062  00000-0  19357-2 0  9992
2 46971  86.3389 331.4549 0002859 295.1976 128.6572 14.98234890642830
Epoch: 2025-12-16T06:30Z
TLE epoch observation values (Epoch: 2025-12-16T06:30:44.080Z)
Latitude
63.73415°
Longitude
156.02231°
Altitude
584.664 km
Speed
7.573 km/s
True Right ascension
22h 35m 27s
True Declination
63° 35' 38"
Sunlit
Object was in daylight at epoch
Visualization orbit readout
Latitude
Unknown
Longitude
Unknown
Altitude
Unknown
Speed
Unknown
Apparent Right ascension
Unknown
Apparent Declination
Unknown
Sunlit
N/A
Visualization observer readout
Local Sidereal Time
08:37:48
Azimuth
Unknown
Elevation
Unknown
Doppler factor
Unknown
Orbital elements
Apogee altitude
571.212 km
Perigee altitude
567.24 km
Semi-major axis
6,947.363 km
Eccentricity
0.00029
Inclination
86.3389°
RAAN
331.4549°
Arg. of periapsis
295.1976°
True anomaly
128.68278°
Mean anomaly
128.6572°
Eccentric anomaly
128.66999°
Mean motion
3.74812 °/min
Orbital period
96.05 mins
BSTAR
0.0019357
Loading maneuver chart data...
Computing Atmospheric mass density...

Documentation

Showing up to 5 results
|